Tracking 27122 objects as of 25-Mar-2023
HD Live streaming from Space Station
objects crossing your sky now

SL-24 R/B

Track SL-24 R/B now!
10-day predictions


NORAD ID: 33319
Int'l Code: 2008-040H
Perigee: 623.2 km
Apogee: 1,352.9 km
Inclination: 97.9 °
Period: 104.7 minutes
Semi major axis: 7359 km
RCS: 6.1238 m2 (large)
Launch date: August 29, 2008
Source: Commonwealth of Independent States (former USSR) (CIS)
Launch site: TYURATAM MISSILE AND SPACE COMPLEX (TTMTR)

Note: This is a ROCKET BODY
Your satellite tracking list
Your tracking list is empty




NASA's NSSDC Master Catalog

Two Line Element Set (TLE):
1 33319U 08040H   23083.56222725  .00000358  00000-0  16749-3 0  9994
2 33319  97.9283 103.6714 0495834   9.7992  96.0574 13.75212088731009
Source of the keplerian elements: AFSPC